Time,TemperatureF,DewpointF,PressureIn,WindDirection,WindDirectionDegrees,WindSpeedMPH,WindSpeedGustMPH,Humidity,HourlyPrecipIn,Conditions,Clouds,dailyrainin,SoftwareType,DateUTC
2013-04-24 00:02:00,64.3,40.1,29.82,SSE,155,0.0,0.0,41,0.00,,OVC095,0.00,VWS V13.01,2013-04-24 04:02:00,
2013-04-24 00:03:00,64.3,40.1,29.82,South,188,3.0,3.0,41,0.00,,OVC095,0.00,VWS V13.01,2013-04-24 04:03:00,
2013-04-24 00:08:00,64.5,39.7,29.82,SSW,212,0.0,12.0,40,0.00,,OVC095,0.00,VWS V13.01,2013-04-24 04:08:00,
2013-04-24 00:13:00,64.4,40.2,29.82,SSE,165,2.0,12.0,41,0.00,,OVC095,0.00,VWS V13.01,2013-04-24 04:13:00,
2013-04-24 00:18:00,64.4,40.2,29.82,WSW,241,0.0,12.0,41,0.00,,OVC095,0.00,VWS V13.01,2013-04-24 04:18:00,
2013-04-24 00:23:00,64.3,40.1,29.81,SSW,209,1.0,12.0,41,0.00,,OVC095,0.00,VWS V13.01,2013-04-24 04:23:00,
2013-04-24 00:28:00,64.3,40.1,29.81,South,174,0.0,12.0,41,0.00,,OVC095,0.00,VWS V13.01,2013-04-24 04:28:00,
2013-04-24 00:33:00,64.0,39.8,29.81,ESE,123,5.0,9.0,41,0.00,,OVC095,0.00,VWS V13.01,2013-04-24 04:33:00,
2013-04-24 00:38:00,63.7,40.2,29.81,SSE,168,0.0,9.0,42,0.00,,OVC095,0.00,VWS V13.01,2013-04-24 04:38:00,
2013-04-24 00:43:00,63.3,39.8,29.80,ESE,109,2.0,10.0,42,0.00,,OVC095,0.00,VWS V13.01,2013-04-24 04:43:00,
2013-04-24 00:48:00,63.0,39.6,29.81,SE,135,0.0,10.0,42,0.00,,OVC095,0.00,VWS V13.01,2013-04-24 04:48:00,
2013-04-24 00:53:00,62.7,39.9,29.80,SSE,148,0.0,10.0,43,0.00,,OVC095,0.00,VWS V13.01,2013-04-24 04:53:00,
2013-04-24 00:58:00,62.5,39.7,29.80,SSW,205,2.0,10.0,43,0.00,,OVC095,0.00,VWS V13.01,2013-04-24 04:58:00,
2013-04-24 01:03:00,62.2,40.0,29.80,South,184,2.0,9.0,44,0.00,,OVC095,0.00,VWS V13.01,2013-04-24 05:03:00,
2013-04-24 01:08:00,61.9,39.8,29.80,SSE,152,0.0,9.0,44,0.00,,OVC095,0.00,VWS V13.01,2013-04-24 05:08:00,
2013-04-24 01:13:00,61.6,40.1,29.80,South,169,0.0,9.0,45,0.00,,OVC095,0.00,VWS V13.01,2013-04-24 05:13:00,
2013-04-24 01:18:00,61.5,40.5,29.80,SSW,202,0.0,9.0,46,0.00,,OVC095,0.00,VWS V13.01,2013-04-24 05:18:00,
2013-04-24 01:23:00,61.4,40.5,29.80,SE,137,0.0,9.0,46,0.00,,OVC095,0.00,VWS V13.01,2013-04-24 05:23:00,
2013-04-24 01:28:00,61.3,40.9,29.80,South,181,0.0,9.0,47,0.00,,OVC095,0.00,VWS V13.01,2013-04-24 05:28:00,
2013-04-24 01:33:00,61.1,41.3,29.79,SE,135,2.0,9.0,48,0.00,,OVC095,0.00,VWS V13.01,2013-04-24 05:33:00,
2013-04-24 01:38:00,61.1,41.8,29.79,South,182,2.0,9.0,49,0.00,,OVC095,0.00,VWS V13.01,2013-04-24 05:38:00,
2013-04-24 01:44:00,60.9,41.6,29.79,SSW,204,0.0,9.0,49,0.00,,OVC095,0.00,VWS V13.01,2013-04-24 05:44:00,
2013-04-24 01:49:00,60.8,42.1,29.79,SE,141,0.0,9.0,50,0.00,,OVC095,0.00,VWS V13.01,2013-04-24 05:49:00,
2013-04-24 01:54:00,60.8,42.1,29.78,ESE,123,1.0,9.0,50,0.00,,OVC095,0.00,VWS V13.01,2013-04-24 05:54:00,
2013-04-24 01:59:00,60.7,42.0,29.78,SE,137,0.0,9.0,50,0.00,,OVC095,0.00,VWS V13.01,2013-04-24 05:59:00,
2013-04-24 02:04:00,60.5,42.3,29.78,SE,146,1.0,5.0,51,0.00,,OVC085,0.00,VWS V13.01,2013-04-24 06:04:00,
2013-04-24 02:09:00,60.3,42.1,29.78,South,177,0.0,10.0,51,0.00,,OVC085,0.00,VWS V13.01,2013-04-24 06:09:00,
2013-04-24 02:14:00,60.2,42.0,29.77,SSW,194,0.0,10.0,51,0.00,,OVC085,0.00,VWS V13.01,2013-04-24 06:14:00,
2013-04-24 02:19:00,60.0,42.3,29.77,South,185,1.0,10.0,52,0.00,,OVC085,0.00,VWS V13.01,2013-04-24 06:19:00,
2013-04-24 02:24:00,60.0,42.3,29.76,SSE,154,4.0,10.0,52,0.00,,OVC085,0.00,VWS V13.01,2013-04-24 06:24:00,
2013-04-24 02:29:00,60.0,42.3,29.76,WSW,246,3.0,10.0,52,0.00,,OVC085,0.00,VWS V13.01,2013-04-24 06:29:00,
2013-04-24 02:34:00,60.0,42.8,29.76,SSW,203,3.0,7.0,53,0.00,,OVC085,0.00,VWS V13.01,2013-04-24 06:34:00,
2013-04-24 02:39:00,59.8,42.7,29.76,NE,53,6.0,7.0,53,0.00,,OVC085,0.00,VWS V13.01,2013-04-24 06:39:00,
2013-04-24 02:44:00,59.6,42.5,29.76,South,180,0.0,7.0,53,0.00,,OVC085,0.00,VWS V13.01,2013-04-24 06:44:00,
2013-04-24 02:49:00,59.5,42.9,29.76,SSE,156,1.0,7.0,54,0.00,,OVC085,0.00,VWS V13.01,2013-04-24 06:49:00,
2013-04-24 02:54:00,59.4,42.8,29.76,SSE,165,1.0,7.0,54,0.00,,OVC085,0.00,VWS V13.01,2013-04-24 06:54:00,
2013-04-24 02:59:00,59.3,42.7,29.76,ESE,107,0.0,7.0,54,0.00,,OVC085,0.00,VWS V13.01,2013-04-24 06:59:00,
2013-04-24 03:04:00,59.0,42.4,29.76,South,180,2.0,5.0,54,0.00,,SCT110,0.00,VWS V13.01,2013-04-24 07:04:00,
2013-04-24 03:09:00,59.0,42.9,29.76,South,182,0.0,6.0,55,0.00,,SCT110,0.00,VWS V13.01,2013-04-24 07:09:00,
2013-04-24 03:14:00,59.0,42.4,29.76,SE,128,1.0,6.0,54,0.00,,SCT110,0.00,VWS V13.01,2013-04-24 07:14:00,
2013-04-24 03:19:00,59.0,42.9,29.76,SE,142,0.0,6.0,55,0.00,,SCT110,0.00,VWS V13.01,2013-04-24 07:19:00,
2013-04-24 03:24:00,59.0,42.9,29.76,SE,126,0.0,11.0,55,0.00,,SCT110,0.00,VWS V13.01,2013-04-24 07:24:00,
2013-04-24 03:29:00,59.0,42.9,29.76,South,185,2.0,11.0,55,0.00,,SCT110,0.00,VWS V13.01,2013-04-24 07:29:00,
2013-04-24 03:34:00,59.0,42.9,29.76,SSW,205,1.0,5.0,55,0.00,,SCT110,0.00,VWS V13.01,2013-04-24 07:34:00,
2013-04-24 03:39:00,59.3,43.2,29.77,SSW,192,1.0,8.0,55,0.00,,SCT110,0.00,VWS V13.01,2013-04-24 07:39:00,
2013-04-24 03:44:00,59.0,44.3,29.76,SSE,150,0.0,8.0,58,0.00,,SCT110,0.00,VWS V13.01,2013-04-24 07:44:00,
2013-04-24 03:49:00,58.8,44.5,29.77,South,178,2.0,9.0,59,0.00,,SCT110,0.00,VWS V13.01,2013-04-24 07:49:00,
2013-04-24 03:54:00,58.2,44.8,29.77,SSW,213,5.0,10.0,61,0.00,,SCT110,0.00,VWS V13.01,2013-04-24 07:54:00,
2013-04-24 03:59:00,57.7,44.8,29.77,SE,146,0.0,10.0,62,0.00,,SCT110,0.00,VWS V13.01,2013-04-24 07:59:00,
2013-04-24 04:04:00,57.4,44.9,29.78,SSW,208,0.0,9.0,63,0.00,,-RA,0.00,VWS V13.01,2013-04-24 08:04:00,
2013-04-24 04:09:00,57.1,45.0,29.78,South,189,1.0,11.0,64,0.00,,-RA,0.00,VWS V13.01,2013-04-24 08:09:00,
2013-04-24 04:14:00,56.7,45.5,29.77,South,169,0.0,11.0,66,0.01,,-RA,0.01,VWS V13.01,2013-04-24 08:14:00,
2013-04-24 04:19:00,56.0,46.7,29.77,South,169,1.0,11.0,71,0.01,,-RA,0.02,VWS V13.01,2013-04-24 08:19:00,
2013-04-24 04:24:00,55.1,46.6,29.77,South,173,1.0,11.0,73,0.02,,-RA,0.02,VWS V13.01,2013-04-24 08:24:00,
2013-04-24 04:29:00,54.5,46.8,29.76,WSW,246,0.0,11.0,75,0.02,,-RA,0.02,VWS V13.01,2013-04-24 08:29:00,
2013-04-24 04:34:00,54.0,47.0,29.76,South,169,2.0,5.0,77,0.02,,-RA,0.02,VWS V13.01,2013-04-24 08:34:00,
2013-04-24 04:39:00,53.6,46.9,29.76,South,175,2.0,5.0,78,0.03,,-RA,0.03,VWS V13.01,2013-04-24 08:39:00,
2013-04-24 04:44:00,53.3,46.6,29.77,SSW,202,0.0,9.0,78,0.03,,-RA,0.03,VWS V13.01,2013-04-24 08:44:00,
2013-04-24 04:49:00,53.2,46.9,29.77,SSE,164,1.0,9.0,79,0.03,,-RA,0.03,VWS V13.01,2013-04-24 08:49:00,
2013-04-24 04:54:00,53.2,46.9,29.77,SE,141,0.0,9.0,79,0.03,,-RA,0.03,VWS V13.01,2013-04-24 08:54:00,
2013-04-24 04:59:00,53.0,47.0,29.77,ESE,123,0.0,9.0,80,0.04,,-RA,0.04,VWS V13.01,2013-04-24 08:59:00,
2013-04-24 05:04:00,52.9,47.2,29.77,SSE,168,2.0,6.0,81,0.04,,-RA,0.04,VWS V13.01,2013-04-24 09:04:00,
2013-04-24 05:09:00,52.7,47.0,29.76,SE,128,1.0,6.0,81,0.04,,-RA,0.04,VWS V13.01,2013-04-24 09:09:00,
2013-04-24 05:14:00,52.6,47.3,29.76,ESE,117,0.0,6.0,82,0.04,,-RA,0.04,VWS V13.01,2013-04-24 09:14:00,
2013-04-24 05:19:00,52.7,47.0,29.76,South,175,0.0,6.0,81,0.04,,-RA,0.04,VWS V13.01,2013-04-24 09:19:00,
2013-04-24 05:24:00,52.8,47.5,29.76,SSE,149,0.0,6.0,82,0.04,,-RA,0.04,VWS V13.01,2013-04-24 09:24:00,
2013-04-24 05:29:00,53.0,47.3,29.76,South,170,1.0,6.0,81,0.04,,-RA,0.04,VWS V13.01,2013-04-24 09:29:00,
2013-04-24 05:34:00,53.3,47.6,29.74,South,184,2.0,7.0,81,0.03,,-RA,0.05,VWS V13.01,2013-04-24 09:34:00,
2013-04-24 05:39:00,53.4,47.7,29.74,SW,222,0.0,10.0,81,0.03,,-RA,0.05,VWS V13.01,2013-04-24 09:39:00,
2013-04-24 05:45:00,53.3,48.0,29.75,WSW,248,0.0,10.0,82,0.04,,-RA,0.06,VWS V13.01,2013-04-24 09:45:00,
2013-04-24 05:50:00,53.3,48.0,29.76,SSW,192,2.0,11.0,82,0.04,,-RA,0.06,VWS V13.01,2013-04-24 09:50:00,
2013-04-24 05:55:00,53.2,48.2,29.75,SSW,202,0.0,11.0,83,0.05,,-RA,0.07,VWS V13.01,2013-04-24 09:55:00,
2013-04-24 06:00:00,53.0,48.3,29.75,SSW,213,0.0,0.0,84,0.05,,-RA,0.07,VWS V13.01,2013-04-24 10:00:00,
2013-04-24 06:05:00,52.8,48.4,29.75,SSE,163,0.0,6.0,85,0.03,,-RA,0.07,VWS V13.01,2013-04-24 10:05:00,
2013-04-24 06:10:00,52.8,48.4,29.74,SSE,155,0.0,7.0,85,0.03,,-RA,0.07,VWS V13.01,2013-04-24 10:10:00,
2013-04-24 06:15:00,52.8,48.7,29.74,South,190,0.0,7.0,86,0.03,,-RA,0.07,VWS V13.01,2013-04-24 10:15:00,
2013-04-24 06:20:00,53.0,48.9,29.74,SSW,200,0.0,8.0,86,0.03,,-RA,0.07,VWS V13.01,2013-04-24 10:20:00,
2013-04-24 06:25:00,53.1,49.0,29.74,SSW,208,0.0,8.0,86,0.03,,-RA,0.07,VWS V13.01,2013-04-24 10:25:00,
2013-04-24 06:30:00,53.4,49.3,29.74,SSW,202,0.0,3.0,86,0.03,,-RA,0.07,VWS V13.01,2013-04-24 10:30:00,
2013-04-24 06:35:00,53.7,49.3,29.74,SW,221,2.0,9.0,85,0.03,,-RA,0.07,VWS V13.01,2013-04-24 10:35:00,
2013-04-24 06:40:00,53.9,49.5,29.74,SSW,195,0.0,9.0,85,0.03,,-RA,0.07,VWS V13.01,2013-04-24 10:40:00,
2013-04-24 06:45:00,53.9,49.2,29.73,SE,126,0.0,9.0,84,0.03,,-RA,0.07,VWS V13.01,2013-04-24 10:45:00,
2013-04-24 06:50:00,53.9,49.2,29.73,SSW,195,1.0,9.0,84,0.03,,-RA,0.07,VWS V13.01,2013-04-24 10:50:00,
2013-04-24 06:55:00,53.9,49.2,29.73,SSW,207,0.0,9.0,84,0.03,,-RA,0.07,VWS V13.01,2013-04-24 10:55:00,
2013-04-24 07:00:00,53.9,49.2,29.73,SE,145,2.0,4.0,84,0.03,,-RA,0.07,VWS V13.01,2013-04-24 11:00:00,
2013-04-24 07:05:00,53.9,49.5,29.73,SSE,168,1.0,5.0,85,0.00,,-RA,0.07,VWS V13.01,2013-04-24 11:05:00,
2013-04-24 07:10:00,54.0,49.3,29.73,NE,40,0.0,7.0,84,0.00,,-RA,0.07,VWS V13.01,2013-04-24 11:10:00,
2013-04-24 07:15:00,54.0,49.3,29.72,South,180,2.0,7.0,84,0.00,,-RA,0.07,VWS V13.01,2013-04-24 11:15:00,
2013-04-24 07:20:00,54.0,49.6,29.72,South,185,0.0,15.0,85,0.00,,-RA,0.07,VWS V13.01,2013-04-24 11:20:00,
2013-04-24 07:25:00,54.2,49.8,29.73,SW,215,1.0,15.0,85,0.00,,-RA,0.07,VWS V13.01,2013-04-24 11:25:00,
2013-04-24 07:30:00,54.3,49.9,29.73,South,172,0.0,4.0,85,0.00,,-RA,0.07,VWS V13.01,2013-04-24 11:30:00,
2013-04-24 07:35:00,54.5,50.1,29.73,SE,140,1.0,11.0,85,0.00,,-RA,0.07,VWS V13.01,2013-04-24 11:35:00,
2013-04-24 07:40:00,54.6,49.9,29.73,South,182,1.0,11.0,84,0.00,,-RA,0.07,VWS V13.01,2013-04-24 11:40:00,
2013-04-24 07:45:00,54.7,50.0,29.73,South,190,2.0,11.0,84,0.00,,-RA,0.07,VWS V13.01,2013-04-24 11:45:00,
2013-04-24 07:50:00,54.9,50.2,29.73,South,184,4.0,11.0,84,0.00,,-RA,0.07,VWS V13.01,2013-04-24 11:50:00,
2013-04-24 07:55:00,55.0,50.6,29.73,South,186,7.0,11.0,85,0.00,,-RA,0.07,VWS V13.01,2013-04-24 11:55:00,
2013-04-24 08:00:00,55.2,50.5,29.73,SSW,196,5.0,5.0,84,0.00,,OVC050,0.07,VWS V13.01,2013-04-24 12:00:00,
2013-04-24 08:05:00,55.2,50.8,29.73,South,177,3.0,10.0,85,0.00,,OVC050,0.07,VWS V13.01,2013-04-24 12:05:00,
2013-04-24 08:10:00,55.3,50.9,29.73,SSW,203,4.0,10.0,85,0.00,,OVC050,0.07,VWS V13.01,2013-04-24 12:10:00,
2013-04-24 08:15:00,55.3,50.9,29.73,SSW,205,0.0,10.0,85,0.00,,OVC050,0.07,VWS V13.01,2013-04-24 12:15:00,
2013-04-24 08:20:00,55.3,51.2,29.73,SSE,153,4.0,10.0,86,0.00,,OVC050,0.07,VWS V13.01,2013-04-24 12:20:00,
2013-04-24 08:26:00,55.3,51.2,29.72,SSW,196,0.0,14.0,86,0.00,,OVC050,0.07,VWS V13.01,2013-04-24 12:26:00,
2013-04-24 08:31:00,55.4,51.6,29.72,South,188,2.0,5.0,87,0.00,,OVC050,0.07,VWS V13.01,2013-04-24 12:31:00,
2013-04-24 08:36:00,55.6,51.8,29.71,SSW,205,0.0,7.0,87,0.00,,OVC050,0.07,VWS V13.01,2013-04-24 12:36:00,
2013-04-24 08:41:00,55.9,52.1,29.71,SSW,209,1.0,9.0,87,0.00,,OVC050,0.07,VWS V13.01,2013-04-24 12:41:00,
2013-04-24 08:46:00,56.2,52.1,29.71,SSE,153,0.0,9.0,86,0.00,,OVC050,0.07,VWS V13.01,2013-04-24 12:46:00,
2013-04-24 08:51:00,56.5,52.4,29.71,SSW,207,3.0,9.0,86,0.00,,OVC050,0.07,VWS V13.01,2013-04-24 12:51:00,
2013-04-24 08:56:00,56.8,52.3,29.70,SSE,155,0.0,9.0,85,0.00,,OVC050,0.07,VWS V13.01,2013-04-24 12:56:00,
2013-04-24 09:01:00,56.9,52.1,29.69,South,190,5.0,7.0,84,0.00,,-RA,0.07,VWS V13.01,2013-04-24 13:01:00,
2013-04-24 09:06:00,57.2,52.4,29.70,SSW,208,1.0,8.0,84,0.00,,-RA,0.07,VWS V13.01,2013-04-24 13:06:00,
2013-04-24 09:11:00,57.3,52.2,29.71,SSW,192,5.0,8.0,83,0.00,,-RA,0.07,VWS V13.01,2013-04-24 13:11:00,
2013-04-24 09:16:00,57.2,52.1,29.70,SW,214,4.0,9.0,83,0.00,,-RA,0.07,VWS V13.01,2013-04-24 13:16:00,
2013-04-24 09:21:00,57.5,52.4,29.69,SE,127,2.0,9.0,83,0.00,,-RA,0.07,VWS V13.01,2013-04-24 13:21:00,
2013-04-24 09:26:00,58.0,52.5,29.69,SSW,210,3.0,15.0,82,0.00,,-RA,0.07,VWS V13.01,2013-04-24 13:26:00,
2013-04-24 09:31:00,58.2,52.4,29.69,SSW,200,4.0,5.0,81,0.00,,-RA,0.07,VWS V13.01,2013-04-24 13:31:00,
2013-04-24 09:36:00,58.4,52.6,29.69,SSW,213,0.0,9.0,81,0.00,,-RA,0.07,VWS V13.01,2013-04-24 13:36:00,
2013-04-24 09:41:00,58.7,52.6,29.69,SSW,208,3.0,12.0,80,0.00,,-RA,0.07,VWS V13.01,2013-04-24 13:41:00,
2013-04-24 09:46:00,59.0,52.8,29.68,SSW,206,3.0,12.0,80,0.00,,-RA,0.07,VWS V13.01,2013-04-24 13:46:00,
2013-04-24 09:51:00,59.0,52.8,29.68,SW,215,0.0,12.0,80,0.00,,-RA,0.07,VWS V13.01,2013-04-24 13:51:00,
2013-04-24 09:56:00,59.2,53.0,29.68,South,176,2.0,12.0,80,0.00,,-RA,0.07,VWS V13.01,2013-04-24 13:56:00,
2013-04-24 10:01:00,59.4,52.9,29.68,WSW,239,1.0,6.0,79,0.00,,-RA,0.07,VWS V13.01,2013-04-24 14:01:00,
2013-04-24 10:06:00,59.4,52.9,29.67,SSE,153,0.0,6.0,79,0.00,,-RA,0.07,VWS V13.01,2013-04-24 14:06:00,
2013-04-24 10:11:00,59.4,52.9,29.68,South,183,3.0,10.0,79,0.00,,-RA,0.07,VWS V13.01,2013-04-24 14:11:00,
2013-04-24 10:16:00,59.1,53.3,29.67,SSW,200,0.0,10.0,81,0.00,,-RA,0.07,VWS V13.01,2013-04-24 14:16:00,
2013-04-24 10:21:00,59.0,53.8,29.68,SW,222,2.0,10.0,83,0.01,,-RA,0.08,VWS V13.01,2013-04-24 14:21:00,
2013-04-24 10:26:00,58.6,54.1,29.68,SSW,198,1.0,10.0,85,0.01,,-RA,0.08,VWS V13.01,2013-04-24 14:26:00,
2013-04-24 10:31:00,58.6,54.1,29.67,SSW,202,0.0,3.0,85,0.01,,-RA,0.08,VWS V13.01,2013-04-24 14:31:00,
2013-04-24 10:36:00,59.0,54.2,29.67,SSW,198,4.0,13.0,84,0.01,,-RA,0.08,VWS V13.01,2013-04-24 14:36:00,
2013-04-24 10:41:00,59.0,54.2,29.67,SE,138,2.0,13.0,84,0.01,,-RA,0.08,VWS V13.01,2013-04-24 14:41:00,
2013-04-24 10:46:00,59.0,54.2,29.66,South,191,1.0,13.0,84,0.01,,-RA,0.08,VWS V13.01,2013-04-24 14:46:00,
2013-04-24 10:51:00,59.4,54.6,29.66,South,175,3.0,13.0,84,0.01,,-RA,0.08,VWS V13.01,2013-04-24 14:51:00,
2013-04-24 10:56:00,59.7,54.5,29.66,SSE,159,0.0,13.0,83,0.01,,-RA,0.08,VWS V13.01,2013-04-24 14:56:00,
2013-04-24 11:01:00,60.1,54.9,29.66,SW,215,4.0,6.0,83,0.01,,-RA,0.08,VWS V13.01,2013-04-24 15:01:00,
2013-04-24 11:09:00,60.8,55.3,29.66,East,96,2.0,10.0,82,0.01,,-RA,0.08,VWS V13.01,2013-04-24 15:09:00,
2013-04-24 11:14:00,61.2,55.3,29.66,West,275,11.0,17.0,81,0.01,,-RA,0.08,VWS V13.01,2013-04-24 15:14:00,
2013-04-24 11:19:00,61.3,54.7,29.65,SSW,194,3.0,17.0,79,0.01,,-RA,0.08,VWS V13.01,2013-04-24 15:19:00,
2013-04-24 11:24:00,61.5,54.6,29.65,SSW,198,10.0,18.0,78,0.01,,-RA,0.08,VWS V13.01,2013-04-24 15:24:00,
2013-04-24 11:29:00,61.5,54.6,29.64,SSW,203,4.0,19.0,78,0.01,,-RA,0.08,VWS V13.01,2013-04-24 15:29:00,
2013-04-24 11:34:00,61.5,54.6,29.64,SSW,192,3.0,13.0,78,0.00,,-RA,0.08,VWS V13.01,2013-04-24 15:34:00,
2013-04-24 11:39:00,61.4,54.1,29.64,South,176,3.0,13.0,77,0.00,,-RA,0.08,VWS V13.01,2013-04-24 15:39:00,
2013-04-24 11:44:00,61.4,54.1,29.65,SSW,200,7.0,17.0,77,0.00,,-RA,0.08,VWS V13.01,2013-04-24 15:44:00,
2013-04-24 11:49:00,61.3,54.4,29.65,SSW,205,3.0,17.0,78,0.00,,-RA,0.08,VWS V13.01,2013-04-24 15:49:00,
2013-04-24 11:54:00,61.0,54.5,29.66,South,190,1.0,17.0,79,0.00,,-RA,0.08,VWS V13.01,2013-04-24 15:54:00,
2013-04-24 11:59:00,60.5,54.7,29.66,South,190,11.0,18.0,81,0.00,,-RA,0.08,VWS V13.01,2013-04-24 15:59:00,
2013-04-24 12:04:00,60.0,54.5,29.66,East,88,8.0,16.0,82,0.01,,-RA,0.09,VWS V13.01,2013-04-24 16:04:00,
2013-04-24 12:09:00,59.7,54.5,29.65,SSW,212,14.0,17.0,83,0.01,,-RA,0.09,VWS V13.01,2013-04-24 16:09:00,
2013-04-24 12:14:00,59.1,54.6,29.65,SSW,197,10.0,18.0,85,0.01,,-RA,0.09,VWS V13.01,2013-04-24 16:14:00,
2013-04-24 12:19:00,59.0,54.8,29.65,SE,144,2.0,18.0,86,0.02,,-RA,0.10,VWS V13.01,2013-04-24 16:19:00,
2013-04-24 12:24:00,58.6,54.8,29.63,SSW,205,2.0,18.0,87,0.02,,-RA,0.10,VWS V13.01,2013-04-24 16:24:00,
2013-04-24 12:29:00,58.4,54.5,29.62,SSW,213,0.0,18.0,87,0.02,,-RA,0.10,VWS V13.01,2013-04-24 16:29:00,
2013-04-24 12:34:00,58.3,54.8,29.63,SW,218,1.0,10.0,88,0.02,,-RA,0.10,VWS V13.01,2013-04-24 16:34:00,
2013-04-24 12:40:00,58.2,55.0,29.64,SSW,194,10.0,13.0,89,0.02,,-RA,0.10,VWS V13.01,2013-04-24 16:40:00,
2013-04-24 12:45:00,58.2,55.0,29.65,SSW,210,2.0,13.0,89,0.02,,-RA,0.10,VWS V13.01,2013-04-24 16:45:00,
2013-04-24 12:50:00,58.2,55.0,29.66,South,180,3.0,13.0,89,0.02,,-RA,0.10,VWS V13.01,2013-04-24 16:50:00,
2013-04-24 12:55:00,58.1,54.9,29.66,SSW,201,7.0,16.0,89,0.03,,-RA,0.11,VWS V13.01,2013-04-24 16:55:00,
2013-04-24 13:00:00,57.8,54.9,29.67,WSW,240,4.0,7.0,90,0.04,,-RA,0.12,VWS V13.01,2013-04-24 17:00:00,
2013-04-24 13:05:00,54.7,49.3,29.68,NNE,32,1.0,11.0,82,0.06,,-RA,0.14,VWS V13.01,2013-04-24 17:05:00,
2013-04-24 13:10:00,50.4,45.8,29.67,NNE,14,0.0,11.0,84,0.08,,-RA,0.16,VWS V13.01,2013-04-24 17:10:00,
2013-04-24 13:15:00,47.5,43.5,29.67,West,273,3.0,11.0,86,0.09,,-RA,0.17,VWS V13.01,2013-04-24 17:15:00,
2013-04-24 13:20:00,45.7,42.7,29.67,WSW,244,0.0,11.0,89,0.09,, +RA,0.17,VWS V13.01,2013-04-24 17:20:00,
2013-04-24 13:25:00,45.0,42.2,29.68,SW,223,0.0,11.0,90,0.10,, +RA,0.18,VWS V13.01,2013-04-24 17:25:00,
2013-04-24 13:30:00,44.7,42.2,29.67,West,261,0.0,0.0,91,0.10,, +RA,0.18,VWS V13.01,2013-04-24 17:30:00,
2013-04-24 13:35:00,44.2,42.0,29.68,SW,217,0.0,5.0,92,0.09,,RA,0.19,VWS V13.01,2013-04-24 17:35:00,
2013-04-24 13:40:00,43.7,41.5,29.68,WSW,239,3.0,5.0,92,0.09,,RA,0.19,VWS V13.01,2013-04-24 17:40:00,
2013-04-24 13:45:00,43.4,41.2,29.68,SSW,207,3.0,5.0,92,0.10,,RA,0.20,VWS V13.01,2013-04-24 17:45:00,
2013-04-24 13:50:00,43.2,41.3,29.68,SSW,200,0.0,5.0,93,0.11,,RA,0.21,VWS V13.01,2013-04-24 17:50:00,
2013-04-24 13:55:00,43.3,41.4,29.68,WSW,244,0.0,5.0,93,0.11,,RA,0.21,VWS V13.01,2013-04-24 17:55:00,
2013-04-24 14:00:00,43.5,41.9,29.68,SW,225,0.0,1.0,94,0.11,,RA,0.21,VWS V13.01,2013-04-24 18:00:00,
2013-04-24 14:05:00,43.7,42.1,29.68,WSW,239,0.0,4.0,94,0.09,,-RA,0.21,VWS V13.01,2013-04-24 18:05:00,
2013-04-24 14:10:00,43.8,42.2,29.68,SSW,195,0.0,5.0,94,0.10,,-RA,0.22,VWS V13.01,2013-04-24 18:10:00,
2013-04-24 14:15:00,43.8,42.2,29.68,SSW,209,3.0,5.0,94,0.10,,-RA,0.22,VWS V13.01,2013-04-24 18:15:00,
2013-04-24 14:20:00,43.7,42.1,29.67,SSW,204,0.0,6.0,94,0.10,,-RA,0.22,VWS V13.01,2013-04-24 18:20:00,
2013-04-24 14:25:00,43.8,42.2,29.66,SSW,207,0.0,6.0,94,0.11,,-RA,0.23,VWS V13.01,2013-04-24 18:25:00,
2013-04-24 14:30:00,44.1,42.8,29.65,South,178,0.0,0.0,95,0.11,,-RA,0.23,VWS V13.01,2013-04-24 18:30:00,
2013-04-24 14:35:00,44.5,43.2,29.64,South,178,0.0,2.0,95,0.06,,-RA,0.24,VWS V13.01,2013-04-24 18:35:00,
2013-04-24 14:40:00,44.9,43.6,29.64,South,180,0.0,2.0,95,0.06,,-RA,0.24,VWS V13.01,2013-04-24 18:40:00,
2013-04-24 14:45:00,45.2,43.9,29.64,SSW,207,0.0,3.0,95,0.07,,-RA,0.25,VWS V13.01,2013-04-24 18:45:00,
2013-04-24 14:50:00,45.8,44.5,29.65,WNW,284,5.0,6.0,95,0.07,,-RA,0.25,VWS V13.01,2013-04-24 18:50:00,
2013-04-24 14:55:00,45.6,44.2,29.68,NW,309,3.0,7.0,95,0.08,,-RA,0.26,VWS V13.01,2013-04-24 18:55:00,
2013-04-24 15:00:00,43.8,41.9,29.68,WNW,284,0.0,4.0,93,0.08,,-RA,0.26,VWS V13.01,2013-04-24 19:00:00,
2013-04-24 15:05:00,42.7,41.1,29.69,West,273,2.0,10.0,94,0.05,,RA,0.26,VWS V13.01,2013-04-24 19:05:00,
2013-04-24 15:10:00,41.8,40.2,29.70,West,279,3.0,13.0,94,0.05,,RA,0.26,VWS V13.01,2013-04-24 19:10:00,
2013-04-24 15:15:00,41.0,39.4,29.70,WNW,298,1.0,13.0,94,0.05,,RA,0.26,VWS V13.01,2013-04-24 19:15:00,
2013-04-24 15:20:00,40.6,39.0,29.71,West,267,2.0,13.0,94,0.05,,-RA,0.26,VWS V13.01,2013-04-24 19:20:00,
2013-04-24 15:25:00,40.3,38.7,29.72,WSW,248,2.0,13.0,94,0.05,,-RA,0.26,VWS V13.01,2013-04-24 19:25:00,
2013-04-24 15:30:00,39.9,38.3,29.71,SSW,198,8.0,8.0,94,0.05,,-RA,0.26,VWS V13.01,2013-04-24 19:30:00,
2013-04-24 15:35:00,39.5,37.9,29.71,West,261,0.0,10.0,94,0.03,,-RA,0.26,VWS V13.01,2013-04-24 19:35:00,
2013-04-24 15:40:00,39.4,38.1,29.72,SW,236,2.0,11.0,95,0.03,,-RA,0.27,VWS V13.01,2013-04-24 19:40:00,
2013-04-24 15:45:00,39.4,38.1,29.71,West,271,1.0,11.0,95,0.04,,-RA,0.27,VWS V13.01,2013-04-24 19:45:00,
2013-04-24 15:50:00,39.2,37.6,29.73,West,281,4.0,12.0,94,0.04,,-RA,0.27,VWS V13.01,2013-04-24 19:50:00,
2013-04-24 15:55:00,39.0,37.7,29.73,West,281,3.0,12.0,95,0.05,,-RA,0.28,VWS V13.01,2013-04-24 19:55:00,
2013-04-24 16:00:00,38.8,37.5,29.74,South,190,5.0,5.0,95,0.06,,-RA,0.29,VWS V13.01,2013-04-24 20:00:00,
2013-04-24 16:05:00,38.8,37.5,29.75,WSW,246,0.0,7.0,95,0.04,,-RA,0.30,VWS V13.01,2013-04-24 20:05:00,
2013-04-24 16:10:00,38.7,37.4,29.76,WSW,254,3.0,11.0,95,0.04,,-RA,0.31,VWS V13.01,2013-04-24 20:10:00,
2013-04-24 16:15:00,38.8,37.5,29.76,WNW,288,1.0,11.0,95,0.06,,RA,0.32,VWS V13.01,2013-04-24 20:15:00,
2013-04-24 16:20:00,38.7,37.4,29.76,West,278,3.0,11.0,95,0.07,,RA,0.34,VWS V13.01,2013-04-24 20:20:00,
2013-04-24 16:25:00,38.6,37.3,29.77,West,268,3.0,12.0,95,0.08,,RA,0.35,VWS V13.01,2013-04-24 20:25:00,
2013-04-24 16:30:00,38.4,37.1,29.77,WSW,238,2.0,7.0,95,0.09,,RA,0.35,VWS V13.01,2013-04-24 20:30:00,
2013-04-24 16:35:00,38.4,37.1,29.78,West,275,0.0,15.0,95,0.09,,RA,0.35,VWS V13.01,2013-04-24 20:35:00,
2013-04-24 16:40:00,38.5,37.2,29.77,WSW,246,2.0,15.0,95,0.10,,RA,0.36,VWS V13.01,2013-04-24 20:40:00,
2013-04-24 16:45:00,38.5,37.2,29.77,WSW,257,3.0,15.0,95,0.10,,RA,0.36,VWS V13.01,2013-04-24 20:45:00,
2013-04-24 16:50:00,38.4,37.1,29.78,WNW,291,5.0,15.0,95,0.10,,RA,0.36,VWS V13.01,2013-04-24 20:50:00,
2013-04-24 16:55:00,38.5,37.2,29.78,WSW,250,0.0,15.0,95,0.10,,RA,0.36,VWS V13.01,2013-04-24 20:55:00,
2013-04-24 17:00:00,38.3,37.0,29.79,WSW,251,3.0,6.0,95,0.11,,RA,0.37,VWS V13.01,2013-04-24 21:00:00,
2013-04-24 17:05:00,38.1,36.8,29.79,WNW,285,2.0,11.0,95,0.08,,-RA,0.37,VWS V13.01,2013-04-24 21:05:00,
2013-04-24 17:10:00,38.0,36.7,29.80,West,280,0.0,11.0,95,0.08,,-RA,0.38,VWS V13.01,2013-04-24 21:10:00,
2013-04-24 17:15:00,38.0,36.7,29.81,West,261,2.0,11.0,95,0.09,,-RA,0.38,VWS V13.01,2013-04-24 21:15:00,
2013-04-24 17:20:00,37.9,36.6,29.81,WSW,248,4.0,12.0,95,0.09,,-RA,0.38,VWS V13.01,2013-04-24 21:20:00,
2013-04-24 17:26:00,37.9,36.6,29.82,West,265,1.0,12.0,95,0.09,,-RA,0.38,VWS V13.01,2013-04-24 21:26:00,
2013-04-24 17:31:00,37.7,36.4,29.83,NW,312,3.0,4.0,95,0.03,,-RA,0.38,VWS V13.01,2013-04-24 21:31:00,
2013-04-24 17:36:00,37.7,36.4,29.83,WSW,256,7.0,11.0,95,0.04,,-RA,0.39,VWS V13.01,2013-04-24 21:36:00,
2013-04-24 17:41:00,37.3,36.0,29.83,West,275,6.0,11.0,95,0.04,,-RA,0.39,VWS V13.01,2013-04-24 21:41:00,
2013-04-24 17:46:00,36.9,35.6,29.84,West,281,5.0,11.0,95,0.04,,-RA,0.39,VWS V13.01,2013-04-24 21:46:00,
2013-04-24 17:51:00,36.6,35.3,29.85,West,270,1.0,12.0,95,0.05,,-RA,0.40,VWS V13.01,2013-04-24 21:51:00,
2013-04-24 17:56:00,36.6,35.3,29.86,WNW,284,0.0,12.0,95,0.06,,-RA,0.41,VWS V13.01,2013-04-24 21:56:00,
2013-04-24 18:01:00,36.5,35.2,29.85,WNW,285,4.0,7.0,95,0.05,,-RA,0.42,VWS V13.01,2013-04-24 22:01:00,
2013-04-24 18:06:00,36.3,35.0,29.85,WSW,248,4.0,10.0,95,0.05,,-RA,0.42,VWS V13.01,2013-04-24 22:06:00,
2013-04-24 18:11:00,36.3,35.0,29.86,NW,304,6.0,15.0,95,0.06,,-RA,0.43,VWS V13.01,2013-04-24 22:11:00,
2013-04-24 18:16:00,36.3,35.0,29.87,WSW,254,9.0,15.0,95,0.06,,-RA,0.43,VWS V13.01,2013-04-24 22:16:00,
2013-04-24 18:21:00,36.2,34.9,29.87,West,274,4.0,15.0,95,0.07,,-RA,0.44,VWS V13.01,2013-04-24 22:21:00,
2013-04-24 18:26:00,36.1,34.8,29.88,WNW,284,2.0,15.0,95,0.07,,-RA,0.44,VWS V13.01,2013-04-24 22:26:00,
2013-04-24 18:31:00,36.0,34.7,29.89,WSW,246,1.0,7.0,95,0.07,,-RA,0.45,VWS V13.01,2013-04-24 22:31:00,
2013-04-24 18:36:00,36.0,34.7,29.89,WSW,246,0.0,7.0,95,0.07,,-RA,0.45,VWS V13.01,2013-04-24 22:36:00,
2013-04-24 18:41:00,35.9,34.6,29.89,SW,219,5.0,10.0,95,0.07,,-RA,0.45,VWS V13.01,2013-04-24 22:41:00,
2013-04-24 18:46:00,35.7,34.4,29.90,WNW,290,0.0,10.0,95,0.07,,-RA,0.45,VWS V13.01,2013-04-24 22:46:00,
2013-04-24 18:51:00,35.7,34.4,29.90,WNW,293,2.0,10.0,95,0.07,,-RA,0.45,VWS V13.01,2013-04-24 22:51:00,
2013-04-24 18:56:00,35.7,34.4,29.90,WNW,288,3.0,10.0,95,0.08,,-RA,0.46,VWS V13.01,2013-04-24 22:56:00,
2013-04-24 19:01:00,35.8,34.5,29.91,West,259,4.0,5.0,95,0.04,,,0.46,VWS V13.01,2013-04-24 23:01:00,
2013-04-24 19:06:00,35.8,34.5,29.92,WNW,296,2.0,9.0,95,0.04,,,0.46,VWS V13.01,2013-04-24 23:06:00,
2013-04-24 19:11:00,35.8,34.5,29.92,West,260,0.0,9.0,95,0.05,,,0.47,VWS V13.01,2013-04-24 23:11:00,
2013-04-24 19:16:00,35.8,34.5,29.92,West,271,2.0,14.0,95,0.05,,,0.47,VWS V13.01,2013-04-24 23:16:00,
2013-04-24 19:21:00,35.9,34.6,29.93,West,263,0.0,14.0,95,0.05,,,0.47,VWS V13.01,2013-04-24 23:21:00,
2013-04-24 19:26:00,36.0,34.7,29.93,West,263,6.0,14.0,95,0.05,,,0.47,VWS V13.01,2013-04-24 23:26:00,
2013-04-24 19:31:00,36.1,34.8,29.94,West,274,1.0,3.0,95,0.02,,,0.47,VWS V13.01,2013-04-24 23:31:00,
2013-04-24 19:36:00,36.2,34.9,29.94,SSW,201,3.0,6.0,95,0.02,,,0.47,VWS V13.01,2013-04-24 23:36:00,
2013-04-24 19:41:00,36.3,35.0,29.94,West,275,0.0,15.0,95,0.02,,,0.47,VWS V13.01,2013-04-24 23:41:00,
2013-04-24 19:46:00,36.4,35.1,29.95,West,269,2.0,15.0,95,0.02,,OVC019,0.47,VWS V13.01,2013-04-24 23:46:00,
2013-04-24 19:51:00,36.4,35.1,29.96,NW,318,1.0,15.0,95,0.02,,OVC019,0.47,VWS V13.01,2013-04-24 23:51:00,
2013-04-24 19:56:00,36.4,35.1,29.96,WSW,244,4.0,15.0,95,0.02,,OVC019,0.47,VWS V13.01,2013-04-24 23:56:00,
2013-04-24 20:01:00,36.5,35.2,29.96,WSW,256,2.0,3.0,95,0.01,,OVC018,0.47,VWS V13.01,2013-04-25 00:01:00,
2013-04-24 20:06:00,36.6,35.3,29.96,WNW,292,1.0,11.0,95,0.01,,OVC018,0.47,VWS V13.01,2013-04-25 00:06:00,
2013-04-24 20:11:00,36.6,35.3,29.96,West,266,0.0,11.0,95,0.01,,OVC018,0.47,VWS V13.01,2013-04-25 00:11:00,
2013-04-24 20:16:00,36.7,35.4,29.97,West,273,0.0,11.0,95,0.01,,OVC018,0.48,VWS V13.01,2013-04-25 00:16:00,
2013-04-24 20:21:00,36.8,35.5,29.97,West,259,2.0,11.0,95,0.02,,OVC018,0.48,VWS V13.01,2013-04-25 00:21:00,
2013-04-24 20:26:00,36.9,35.6,29.97,WSW,249,0.0,11.0,95,0.02,,OVC018,0.48,VWS V13.01,2013-04-25 00:26:00,
2013-04-24 21:44:00,37.9,36.3,30.04,SW,221,2.0,13.0,94,0.00,,OVC018,0.48,VWS V13.01,2013-04-25 01:44:00,
2013-04-24 21:49:00,37.9,36.3,30.04,West,265,5.0,13.0,94,0.00,,OVC014,0.48,VWS V13.01,2013-04-25 01:49:00,
2013-04-24 21:54:00,37.9,36.3,30.04,SSW,201,2.0,13.0,94,0.00,,OVC014,0.48,VWS V13.01,2013-04-25 01:54:00,
2013-04-24 21:59:00,37.9,36.3,30.05,WSW,241,2.0,13.0,94,0.00,,OVC014,0.48,VWS V13.01,2013-04-25 01:59:00,
2013-04-24 22:04:00,38.0,36.4,30.05,SW,231,4.0,10.0,94,0.00,,OVC011,0.48,VWS V13.01,2013-04-25 02:04:00,
2013-04-24 22:08:00,38.1,36.5,30.05,WSW,257,4.0,10.0,94,0.00,,OVC011,0.48,VWS V13.01,2013-04-25 02:08:00,
2013-04-24 22:14:00,38.1,36.5,30.06,West,280,0.0,10.0,94,0.00,,OVC011,0.48,VWS V13.01,2013-04-25 02:14:00,
2013-04-24 22:19:00,38.1,36.5,30.06,West,260,1.0,10.0,94,0.00,,OVC011,0.48,VWS V13.01,2013-04-25 02:19:00,
2013-04-24 22:24:00,38.1,36.5,30.05,WSW,245,1.0,10.0,94,0.00,,OVC011,0.48,VWS V13.01,2013-04-25 02:24:00,
2013-04-24 22:29:00,38.1,36.5,30.05,SSW,199,0.0,10.0,94,0.00,,OVC011,0.48,VWS V13.01,2013-04-25 02:29:00,
2013-04-24 22:34:00,38.1,36.5,30.05,West,272,0.0,3.0,94,0.00,,OVC044,0.48,VWS V13.01,2013-04-25 02:34:00,
2013-04-24 22:39:00,38.0,36.2,30.06,SSW,210,2.0,5.0,93,0.00,,OVC044,0.48,VWS V13.01,2013-04-25 02:39:00,
2013-04-24 22:44:00,37.9,36.1,30.06,SSW,211,0.0,5.0,93,0.00,,OVC044,0.48,VWS V13.01,2013-04-25 02:44:00,
2013-04-24 22:49:00,37.9,36.1,30.06,WSW,238,2.0,5.0,93,0.00,,OVC044,0.48,VWS V13.01,2013-04-25 02:49:00,
2013-04-24 22:54:00,37.8,36.0,30.06,SSW,205,0.0,5.0,93,0.00,,OVC044,0.48,VWS V13.01,2013-04-25 02:54:00,
2013-04-24 22:59:00,37.7,35.9,30.07,SSW,205,0.0,5.0,93,0.00,,OVC044,0.48,VWS V13.01,2013-04-25 02:59:00,
2013-04-24 23:04:00,37.7,35.9,30.07,SSW,204,0.0,2.0,93,0.00,,BKN060,0.48,VWS V13.01,2013-04-25 03:04:00,
2013-04-24 23:09:00,37.8,36.0,30.07,SSW,204,0.0,2.0,93,0.00,,BKN060,0.48,VWS V13.01,2013-04-25 03:09:00,
2013-04-24 23:14:00,37.7,35.9,30.07,South,188,2.0,3.0,93,0.00,,BKN060,0.48,VWS V13.01,2013-04-25 03:14:00,
2013-04-24 23:19:00,37.7,35.9,30.07,SSW,209,0.0,4.0,93,0.00,,OVC046,0.48,VWS V13.01,2013-04-25 03:19:00,
2013-04-24 23:24:00,37.7,35.9,30.07,SSW,209,1.0,4.0,93,0.00,,OVC046,0.48,VWS V13.01,2013-04-25 03:24:00,
2013-04-24 23:29:00,37.6,35.8,30.07,SSW,209,2.0,4.0,93,0.00,,OVC046,0.48,VWS V13.01,2013-04-25 03:29:00,
2013-04-24 23:34:00,37.5,35.7,30.08,SSW,209,0.0,3.0,93,0.00,,OVC047,0.48,VWS V13.01,2013-04-25 03:34:00,
2013-04-24 23:39:00,37.5,35.7,30.08,SSW,203,0.0,5.0,93,0.00,,OVC047,0.48,VWS V13.01,2013-04-25 03:39:00,
2013-04-24 23:44:00,37.5,35.7,30.08,SSW,203,2.0,5.0,93,0.00,,OVC047,0.48,VWS V13.01,2013-04-25 03:44:00,
2013-04-24 23:49:00,37.5,35.7,30.09,SSW,209,2.0,5.0,93,0.00,,OVC047,0.48,VWS V13.01,2013-04-25 03:49:00,
2013-04-24 23:54:00,37.4,35.6,30.08,SSW,212,4.0,5.0,93,0.00,,OVC047,0.48,VWS V13.01,2013-04-25 03:54:00,
2013-04-24 23:59:00,37.3,35.5,30.09,SSW,206,0.0,5.0,93,0.00,,OVC047,0.48,VWS V13.01,2013-04-25 03:59:00,